Location: Godzisko
(49.9648°N, 19.4576°E)
Time: 02:17:07
(UTC+00:00)

Meteor 2-4 Rocket - Pass Details

Date: 20 April 2021
Orbit: 799 x 909 km, 81.2° (Epoch: 08 May)

Event Time Altitude Azimuth Distance (km) Brightness Sun altitude
Exits shadow 01:07:13 34° 188° (S) 1,451 4.5 -20.7°
Maximum altitude 01:09:58 87° 100° (E) 915 3.8 -20.4°
Drops below altitude 10° 01:15:54 10° 13° (NNE) 2,581 7.1 -19.8°
Sets 01:18:21 0° 13° (NNE) 3,514 8.0 -19.5°
